Year,Month,Day,Hour,Minute,Value (Times are PST for temperature in C)
2018,08,21,00,00,17.00
2018,08,21,00,01,17.00
2018,08,21,00,02,17.00
2018,08,21,00,03,16.90
2018,08,21,00,04,16.90
2018,08,21,00,05,16.90
2018,08,21,00,06,16.90
2018,08,21,00,07,16.90
2018,08,21,00,08,16.80
2018,08,21,00,09,16.80
2018,08,21,00,10,16.80
2018,08,21,00,11,16.70
2018,08,21,00,12,16.70
2018,08,21,00,13,16.70
2018,08,21,00,14,16.60
2018,08,21,00,15,16.60
2018,08,21,00,16,16.50
2018,08,21,00,17,16.50
2018,08,21,00,18,16.40
2018,08,21,00,19,16.40
2018,08,21,00,20,16.40
2018,08,21,00,21,16.30
2018,08,21,00,22,16.30
2018,08,21,00,23,16.30
2018,08,21,00,24,16.30
2018,08,21,00,25,16.20
2018,08,21,00,26,16.20
2018,08,21,00,27,16.10
2018,08,21,00,28,16.10
2018,08,21,00,29,16.10
2018,08,21,00,30,16.10
2018,08,21,00,31,16.10
2018,08,21,00,32,16.10
2018,08,21,00,33,16.00
2018,08,21,00,34,16.00
2018,08,21,00,35,16.00
2018,08,21,00,36,16.00
2018,08,21,00,37,16.00
2018,08,21,00,38,16.00
2018,08,21,00,39,16.00
2018,08,21,00,40,16.00
2018,08,21,00,41,15.90
2018,08,21,00,42,15.90
2018,08,21,00,43,15.90
2018,08,21,00,44,15.90
2018,08,21,00,45,15.90
2018,08,21,00,46,15.90
2018,08,21,00,47,15.90
2018,08,21,00,48,15.90
2018,08,21,00,49,15.90
2018,08,21,00,50,15.90
2018,08,21,00,51,16.00
2018,08,21,00,52,16.00
2018,08,21,00,53,16.00
2018,08,21,00,54,16.00
2018,08,21,00,55,16.00
2018,08,21,00,56,16.00
2018,08,21,00,57,16.10
2018,08,21,00,58,16.10
2018,08,21,00,59,16.10
2018,08,21,01,00,16.10
2018,08,21,01,01,16.10
2018,08,21,01,02,16.10
2018,08,21,01,03,16.10
2018,08,21,01,04,16.10
2018,08,21,01,05,16.10
2018,08,21,01,06,16.10
2018,08,21,01,07,16.10
2018,08,21,01,08,16.10
2018,08,21,01,09,16.10
2018,08,21,01,10,16.10
2018,08,21,01,11,16.10
2018,08,21,01,12,16.10
2018,08,21,01,13,16.10
2018,08,21,01,14,16.10
2018,08,21,01,15,16.10
2018,08,21,01,16,16.20
2018,08,21,01,17,16.20
2018,08,21,01,18,16.10
2018,08,21,01,19,16.10
2018,08,21,01,20,16.10
2018,08,21,01,21,16.10
2018,08,21,01,22,16.10
2018,08,21,01,23,16.10
2018,08,21,01,24,16.10
2018,08,21,01,25,16.10
2018,08,21,01,26,16.10
2018,08,21,01,27,16.10
2018,08,21,01,28,16.10
2018,08,21,01,29,16.10
2018,08,21,01,30,16.10
2018,08,21,01,31,16.10
2018,08,21,01,32,16.10
2018,08,21,01,33,16.10
2018,08,21,01,34,16.10
2018,08,21,01,35,16.00
2018,08,21,01,36,16.00
2018,08,21,01,37,16.00
2018,08,21,01,38,16.00
2018,08,21,01,39,16.00
2018,08,21,01,40,15.90
2018,08,21,01,41,15.90
2018,08,21,01,42,15.90
2018,08,21,01,43,15.90
2018,08,21,01,44,15.80
2018,08,21,01,45,15.80
2018,08,21,01,46,15.80
2018,08,21,01,47,15.80
2018,08,21,01,48,15.80
2018,08,21,01,49,15.80
2018,08,21,01,50,15.80
2018,08,21,01,51,15.70
2018,08,21,01,52,15.70
2018,08,21,01,53,15.70
2018,08,21,01,54,15.70
2018,08,21,01,55,15.70
2018,08,21,01,56,15.70
2018,08,21,01,57,15.70
2018,08,21,01,58,15.60
2018,08,21,01,59,15.60
2018,08,21,02,00,15.60
2018,08,21,02,01,15.60
2018,08,21,02,02,15.60
2018,08,21,02,03,15.50
2018,08,21,02,04,15.50
2018,08,21,02,05,15.50
2018,08,21,02,06,15.40
2018,08,21,02,07,15.40
2018,08,21,02,08,15.40
2018,08,21,02,09,15.40
2018,08,21,02,10,15.40
2018,08,21,02,11,15.40
2018,08,21,02,12,15.40
2018,08,21,02,13,15.30
2018,08,21,02,14,15.30
2018,08,21,02,15,15.30
2018,08,21,02,16,15.30
2018,08,21,02,17,15.30
2018,08,21,02,18,15.30
2018,08,21,02,19,15.30
2018,08,21,02,20,15.20
2018,08,21,02,21,15.20
2018,08,21,02,22,15.20
2018,08,21,02,23,15.20
2018,08,21,02,24,15.20
2018,08,21,02,25,15.10
2018,08,21,02,26,15.10
2018,08,21,02,27,15.10
2018,08,21,02,28,15.00
2018,08,21,02,29,15.00
2018,08,21,02,30,15.00
2018,08,21,02,31,15.00
2018,08,21,02,32,15.00
2018,08,21,02,33,15.00
2018,08,21,02,34,15.00
2018,08,21,02,35,15.00
2018,08,21,02,36,15.00
2018,08,21,02,37,15.00
2018,08,21,02,38,15.00
2018,08,21,02,39,15.00
2018,08,21,02,40,15.00
2018,08,21,02,41,15.00
2018,08,21,02,42,14.90
2018,08,21,02,43,14.90
2018,08,21,02,44,14.80
2018,08,21,02,45,14.80
2018,08,21,02,46,14.80
2018,08,21,02,47,14.80
2018,08,21,02,48,14.70
2018,08,21,02,49,14.70
2018,08,21,02,50,14.70
2018,08,21,02,51,14.70
2018,08,21,02,52,14.70
2018,08,21,02,53,14.70
2018,08,21,02,54,14.70
2018,08,21,02,55,14.60
2018,08,21,02,56,14.60
2018,08,21,02,57,14.60
2018,08,21,02,58,14.60
2018,08,21,02,59,14.60
2018,08,21,03,00,14.60
2018,08,21,03,01,14.60
2018,08,21,03,02,14.60
2018,08,21,03,03,14.50
2018,08,21,03,04,14.50
2018,08,21,03,05,14.50
2018,08,21,03,06,14.50
2018,08,21,03,07,14.50
2018,08,21,03,08,14.50
2018,08,21,03,09,14.50
2018,08,21,03,10,14.50
2018,08,21,03,11,14.50
2018,08,21,03,12,14.50
2018,08,21,03,13,14.50
2018,08,21,03,14,14.50
2018,08,21,03,15,14.50
2018,08,21,03,16,14.40
2018,08,21,03,17,14.40
2018,08,21,03,18,14.40
2018,08,21,03,19,14.40
2018,08,21,03,20,14.40
2018,08,21,03,21,14.40
2018,08,21,03,22,14.40
2018,08,21,03,23,14.40
2018,08,21,03,24,14.30
2018,08,21,03,25,14.30
2018,08,21,03,26,14.30
2018,08,21,03,27,14.30
2018,08,21,03,28,14.30
2018,08,21,03,29,14.30
2018,08,21,03,30,14.30
2018,08,21,03,31,14.30
2018,08,21,03,32,14.30
2018,08,21,03,33,14.30
2018,08,21,03,34,14.30
2018,08,21,03,35,14.30
2018,08,21,03,36,14.30
2018,08,21,03,37,14.30
2018,08,21,03,38,14.30
2018,08,21,03,39,14.30
2018,08,21,03,40,14.30
2018,08,21,03,41,14.20
2018,08,21,03,42,14.20
2018,08,21,03,43,14.20
2018,08,21,03,44,14.20
2018,08,21,03,45,14.20
2018,08,21,03,46,14.20
2018,08,21,03,47,14.20
2018,08,21,03,48,14.20
2018,08,21,03,49,14.10
2018,08,21,03,50,14.10
2018,08,21,03,51,14.10
2018,08,21,03,52,14.10
2018,08,21,03,53,14.10
2018,08,21,03,54,14.10
2018,08,21,03,55,14.10
2018,08,21,03,56,14.10
2018,08,21,03,57,14.10
2018,08,21,03,58,14.10
2018,08,21,03,59,14.10
2018,08,21,04,00,14.10
2018,08,21,04,01,14.10
2018,08,21,04,02,14.10
2018,08,21,04,03,14.10
2018,08,21,04,04,14.10
2018,08,21,04,05,14.10
2018,08,21,04,06,14.10
2018,08,21,04,07,14.10
2018,08,21,04,08,14.10
2018,08,21,04,09,14.10
2018,08,21,04,10,14.10
2018,08,21,04,11,14.10
2018,08,21,04,12,14.20
2018,08,21,04,13,14.20
2018,08,21,04,14,14.20
2018,08,21,04,15,14.20
2018,08,21,04,16,14.20
2018,08,21,04,17,14.20
2018,08,21,04,18,14.20
2018,08,21,04,19,14.30
2018,08,21,04,20,14.30
2018,08,21,04,21,14.30
2018,08,21,04,22,14.30
2018,08,21,04,23,14.30
2018,08,21,04,24,14.30
2018,08,21,04,25,14.30
2018,08,21,04,26,14.20
2018,08,21,04,27,14.20
2018,08,21,04,28,14.20
2018,08,21,04,29,14.20
2018,08,21,04,30,14.20
2018,08,21,04,31,14.20
2018,08,21,04,32,14.20
2018,08,21,04,33,14.20
2018,08,21,04,34,14.10
2018,08,21,04,35,14.10
2018,08,21,04,36,14.10
2018,08,21,04,37,14.10
2018,08,21,04,38,14.10
2018,08,21,04,39,14.10
2018,08,21,04,40,14.10
2018,08,21,04,41,14.10
2018,08,21,04,42,14.00
2018,08,21,04,43,14.00
2018,08,21,04,44,14.00
2018,08,21,04,45,13.90
2018,08,21,04,46,13.90
2018,08,21,04,47,13.90
2018,08,21,04,48,13.90
2018,08,21,04,49,13.90
2018,08,21,04,50,13.90
2018,08,21,04,51,13.80
2018,08,21,04,52,13.80
2018,08,21,04,53,13.80
2018,08,21,04,54,13.80
2018,08,21,04,55,13.80
2018,08,21,04,56,13.80
2018,08,21,04,57,13.80
2018,08,21,04,58,13.80
2018,08,21,04,59,13.80
2018,08,21,05,00,13.80
2018,08,21,05,01,13.80
2018,08,21,05,02,13.80
2018,08,21,05,03,13.80
2018,08,21,05,04,13.80
2018,08,21,05,05,13.80
2018,08,21,05,06,13.80
2018,08,21,05,07,13.80
2018,08,21,05,08,13.80
2018,08,21,05,09,13.80
2018,08,21,05,10,13.80
2018,08,21,05,11,13.70
2018,08,21,05,12,13.70
2018,08,21,05,13,13.70
2018,08,21,05,14,13.70
2018,08,21,05,15,13.70
2018,08,21,05,16,13.70
2018,08,21,05,17,13.70
2018,08,21,05,18,13.70
2018,08,21,05,19,13.70
2018,08,21,05,20,13.70
2018,08,21,05,21,13.60
2018,08,21,05,22,13.60
2018,08,21,05,23,13.60
2018,08,21,05,24,13.60
2018,08,21,05,25,13.60
2018,08,21,05,26,13.60
2018,08,21,05,27,13.60
2018,08,21,05,28,13.60
2018,08,21,05,29,13.50
2018,08,21,05,30,13.50
2018,08,21,05,31,13.50
2018,08,21,05,32,13.50
2018,08,21,05,33,13.40
2018,08,21,05,34,13.40
2018,08,21,05,35,13.40
2018,08,21,05,36,13.40
2018,08,21,05,37,13.40
2018,08,21,05,38,13.30
2018,08,21,05,39,13.30
2018,08,21,05,40,13.30
2018,08,21,05,41,13.30
2018,08,21,05,42,13.30
2018,08,21,05,43,13.30
2018,08,21,05,44,13.30
2018,08,21,05,45,13.30
2018,08,21,05,46,13.30
2018,08,21,05,47,13.30
2018,08,21,05,48,13.20
2018,08,21,05,49,13.20
2018,08,21,05,50,13.20
2018,08,21,05,51,13.20
2018,08,21,05,52,13.20
2018,08,21,05,53,13.20
2018,08,21,05,54,13.20
2018,08,21,05,55,13.20
2018,08,21,05,56,13.20
2018,08,21,05,57,13.20
2018,08,21,05,58,13.20
2018,08,21,05,59,13.10
2018,08,21,06,00,13.10
2018,08,21,06,01,13.10
2018,08,21,06,02,13.10
2018,08,21,06,03,13.10
2018,08,21,06,04,13.10
2018,08,21,06,05,13.10
2018,08,21,06,06,13.10
2018,08,21,06,07,13.00
2018,08,21,06,08,13.00
2018,08,21,06,09,13.00
2018,08,21,06,10,13.00
2018,08,21,06,11,13.00
2018,08,21,06,12,13.00
2018,08,21,06,13,13.00
2018,08,21,06,14,13.00
2018,08,21,06,15,13.00
2018,08,21,06,16,13.00
2018,08,21,06,17,13.00
2018,08,21,06,18,12.90
2018,08,21,06,19,12.90
2018,08,21,06,20,13.00
2018,08,21,06,21,13.00
2018,08,21,06,22,12.90
2018,08,21,06,23,13.00
2018,08,21,06,24,12.90
2018,08,21,06,25,12.90
2018,08,21,06,26,12.90
2018,08,21,06,27,12.90
2018,08,21,06,28,12.90
2018,08,21,06,29,12.90
2018,08,21,06,30,12.90
2018,08,21,06,31,12.90
2018,08,21,06,32,12.90
2018,08,21,06,33,12.90
2018,08,21,06,34,12.90
2018,08,21,06,35,12.90
2018,08,21,06,36,12.90
2018,08,21,06,37,12.90
2018,08,21,06,38,12.90
2018,08,21,06,39,12.90
2018,08,21,06,40,12.90
2018,08,21,06,41,12.90
2018,08,21,06,42,12.90
2018,08,21,06,43,12.90
2018,08,21,06,44,12.90
2018,08,21,06,45,12.90
2018,08,21,06,46,12.90
2018,08,21,06,47,12.90
2018,08,21,06,48,12.90
2018,08,21,06,49,12.90
2018,08,21,06,50,12.90
2018,08,21,06,51,12.90
2018,08,21,06,52,12.90
2018,08,21,06,53,12.90
2018,08,21,06,54,12.90
2018,08,21,06,55,12.90
2018,08,21,06,56,12.90
2018,08,21,06,57,12.90
2018,08,21,06,58,12.90
2018,08,21,06,59,12.90
2018,08,21,07,00,12.90
2018,08,21,07,01,12.90
2018,08,21,07,02,12.90
2018,08,21,07,03,12.90
2018,08,21,07,04,13.00
2018,08,21,07,05,13.00
2018,08,21,07,06,13.00
2018,08,21,07,07,13.00
2018,08,21,07,08,13.00
2018,08,21,07,09,13.00
2018,08,21,07,10,13.00
2018,08,21,07,11,13.00
2018,08,21,07,12,13.00
2018,08,21,07,13,13.00
2018,08,21,07,14,13.00
2018,08,21,07,15,13.10
2018,08,21,07,16,13.10
2018,08,21,07,17,13.10
2018,08,21,07,18,13.10
2018,08,21,07,19,13.10
2018,08,21,07,20,13.10
2018,08,21,07,21,13.10
2018,08,21,07,22,13.10
2018,08,21,07,23,13.20
2018,08,21,07,24,13.20
2018,08,21,07,25,13.20
2018,08,21,07,26,13.20
2018,08,21,07,27,13.30
2018,08,21,07,28,13.30
2018,08,21,07,29,13.30
2018,08,21,07,30,13.30
2018,08,21,07,31,13.30
2018,08,21,07,32,13.40
2018,08,21,07,33,13.40
2018,08,21,07,34,13.40
2018,08,21,07,35,13.50
2018,08,21,07,36,13.50
2018,08,21,07,37,13.60
2018,08,21,07,38,13.60
2018,08,21,07,39,13.60
2018,08,21,07,40,13.60
2018,08,21,07,41,13.60
2018,08,21,07,42,13.70
2018,08,21,07,43,13.70
2018,08,21,07,44,13.70
2018,08,21,07,45,13.70
2018,08,21,07,46,13.70
2018,08,21,07,47,13.80
2018,08,21,07,48,13.80
2018,08,21,07,49,13.80
2018,08,21,07,50,13.80
2018,08,21,07,51,13.80
2018,08,21,07,52,13.80
2018,08,21,07,53,13.90
2018,08,21,07,54,13.90
2018,08,21,07,55,13.90
2018,08,21,07,56,13.90
2018,08,21,07,57,14.00
2018,08,21,07,58,14.00
2018,08,21,07,59,14.10
2018,08,21,08,00,14.10
2018,08,21,08,01,14.10
2018,08,21,08,02,14.20
2018,08,21,08,03,14.20
2018,08,21,08,04,14.20
2018,08,21,08,05,14.20
2018,08,21,08,06,14.30
2018,08,21,08,07,14.30
2018,08,21,08,08,14.40
2018,08,21,08,09,14.40
2018,08,21,08,10,14.40
2018,08,21,08,11,14.50
2018,08,21,08,12,14.50
2018,08,21,08,13,14.60
2018,08,21,08,14,14.60
2018,08,21,08,15,14.60
2018,08,21,08,16,14.70
2018,08,21,08,17,14.70
2018,08,21,08,18,14.80
2018,08,21,08,19,14.80
2018,08,21,08,20,14.80
2018,08,21,08,21,14.90
2018,08,21,08,22,15.00
2018,08,21,08,23,15.00
2018,08,21,08,24,15.00
2018,08,21,08,25,15.00
2018,08,21,08,26,15.00
2018,08,21,08,27,15.00
2018,08,21,08,28,15.00
2018,08,21,08,29,15.00
2018,08,21,08,30,15.10
2018,08,21,08,31,15.20
2018,08,21,08,32,15.20
2018,08,21,08,33,15.30
2018,08,21,08,34,15.30
2018,08,21,08,35,15.40
2018,08,21,08,36,15.40
2018,08,21,08,37,15.50
2018,08,21,08,38,15.60
2018,08,21,08,39,15.60
2018,08,21,08,40,15.70
2018,08,21,08,41,15.70
2018,08,21,08,42,15.80
2018,08,21,08,43,15.90
2018,08,21,08,44,15.90
2018,08,21,08,45,16.00
2018,08,21,08,46,16.10
2018,08,21,08,47,16.10
2018,08,21,08,48,16.20
2018,08,21,08,49,16.30
2018,08,21,08,50,16.30
2018,08,21,08,51,16.40
2018,08,21,08,52,16.40
2018,08,21,08,53,16.50
2018,08,21,08,54,16.60
2018,08,21,08,55,16.60
2018,08,21,08,56,16.70
2018,08,21,08,57,16.70
2018,08,21,08,58,16.80
2018,08,21,08,59,16.80
2018,08,21,09,00,16.90
2018,08,21,09,01,16.90
2018,08,21,09,02,17.00
2018,08,21,09,03,17.10
2018,08,21,09,04,17.10
2018,08,21,09,05,17.20
2018,08,21,09,06,17.20
2018,08,21,09,07,17.30
2018,08,21,09,08,17.40
2018,08,21,09,09,17.50
2018,08,21,09,10,17.50
2018,08,21,09,11,17.60
2018,08,21,09,12,17.70
2018,08,21,09,13,17.70
2018,08,21,09,14,17.80
2018,08,21,09,15,17.90
2018,08,21,09,16,17.90
2018,08,21,09,17,18.00
2018,08,21,09,18,18.10
2018,08,21,09,19,18.20
2018,08,21,09,20,18.20
2018,08,21,09,21,18.30
2018,08,21,09,22,18.30
2018,08,21,09,23,18.40
2018,08,21,09,24,18.50
2018,08,21,09,25,18.50
2018,08,21,09,26,18.60
2018,08,21,09,27,18.70
2018,08,21,09,28,18.70
2018,08,21,09,29,18.80
2018,08,21,09,30,18.90
2018,08,21,09,31,19.00
2018,08,21,09,32,19.00
2018,08,21,09,33,19.20
2018,08,21,09,34,19.30
2018,08,21,09,35,19.50
2018,08,21,09,36,19.60
2018,08,21,09,37,19.80
2018,08,21,09,38,19.90
2018,08,21,09,39,20.10
2018,08,21,09,40,20.20
2018,08,21,09,41,20.30
2018,08,21,09,42,20.40
2018,08,21,09,43,20.50
2018,08,21,09,44,20.60
2018,08,21,09,45,20.70
2018,08,21,09,46,20.70
2018,08,21,09,47,20.80
2018,08,21,09,48,20.90
2018,08,21,09,49,21.00
2018,08,21,09,50,21.00
2018,08,21,09,51,21.10
2018,08,21,09,52,21.20
2018,08,21,09,53,21.20
2018,08,21,09,54,21.20
2018,08,21,09,55,21.30
2018,08,21,09,56,21.30
2018,08,21,09,57,21.30
2018,08,21,09,58,21.30
2018,08,21,09,59,21.30
2018,08,21,10,00,21.30
2018,08,21,10,01,21.30
2018,08,21,10,02,21.30
2018,08,21,10,03,21.30
2018,08,21,10,04,21.40
2018,08,21,10,05,21.40
2018,08,21,10,06,21.40
2018,08,21,10,07,21.40
2018,08,21,10,08,21.40
2018,08,21,10,09,21.50
2018,08,21,10,10,21.50
2018,08,21,10,11,21.60
2018,08,21,10,12,21.70
2018,08,21,10,13,21.70
2018,08,21,10,14,21.80
2018,08,21,10,15,21.80
2018,08,21,10,16,21.80
2018,08,21,10,17,21.80
2018,08,21,10,18,21.80
2018,08,21,10,19,21.80
2018,08,21,10,20,21.80
2018,08,21,10,21,21.80
2018,08,21,10,22,21.80
2018,08,21,10,23,21.80
2018,08,21,10,24,21.80
2018,08,21,10,25,21.70
2018,08,21,10,26,21.70
2018,08,21,10,27,21.70
2018,08,21,10,28,21.70
2018,08,21,10,29,21.70
2018,08,21,10,30,21.70
2018,08,21,10,31,21.70
2018,08,21,10,32,21.80
2018,08,21,10,33,21.80
2018,08,21,10,34,21.80
2018,08,21,10,35,21.80
2018,08,21,10,36,21.80
2018,08,21,10,37,21.80
2018,08,21,10,38,21.80
2018,08,21,10,39,21.80
2018,08,21,10,40,21.80
2018,08,21,10,41,21.80
2018,08,21,10,42,21.80
2018,08,21,10,43,21.80
2018,08,21,10,44,21.80
2018,08,21,10,45,21.80
2018,08,21,10,46,21.80
2018,08,21,10,47,21.80
2018,08,21,10,48,21.80
2018,08,21,10,49,21.80
2018,08,21,10,50,21.80
2018,08,21,10,51,21.80
2018,08,21,10,52,21.80
2018,08,21,10,53,21.80
2018,08,21,10,54,21.90
2018,08,21,10,55,21.90
2018,08,21,10,56,22.00
2018,08,21,10,57,22.00
2018,08,21,10,58,22.10
2018,08,21,10,59,22.10
2018,08,21,11,00,22.10
2018,08,21,11,01,22.20
2018,08,21,11,02,22.20
2018,08,21,11,03,22.20
2018,08,21,11,04,22.20
2018,08,21,11,05,22.30
2018,08,21,11,06,22.30
2018,08,21,11,07,22.30
2018,08,21,11,08,22.40
2018,08,21,11,09,22.40
2018,08,21,11,10,22.50
2018,08,21,11,11,22.60
2018,08,21,11,12,22.60
2018,08,21,11,13,22.70
2018,08,21,11,14,22.80
2018,08,21,11,15,22.80
2018,08,21,11,16,22.90
2018,08,21,11,17,23.00
2018,08,21,11,18,23.00
2018,08,21,11,19,23.10
2018,08,21,11,20,23.20
2018,08,21,11,21,23.20
2018,08,21,11,22,23.10
2018,08,21,11,23,23.10
2018,08,21,11,24,23.10
2018,08,21,11,25,23.10
2018,08,21,11,26,23.00
2018,08,21,11,27,23.10
2018,08,21,11,28,23.10
2018,08,21,11,29,23.10
2018,08,21,11,30,23.10
2018,08,21,11,31,23.10
2018,08,21,11,32,23.20
2018,08,21,11,33,23.20
2018,08,21,11,34,23.20
2018,08,21,11,35,23.20
2018,08,21,11,36,23.20
2018,08,21,11,37,23.20
2018,08,21,11,38,23.20
2018,08,21,11,39,23.20
2018,08,21,11,40,23.20
2018,08,21,11,41,23.00
2018,08,21,11,42,22.90
2018,08,21,11,43,22.80
2018,08,21,11,44,22.60
2018,08,21,11,45,22.50
2018,08,21,11,46,22.40
2018,08,21,11,47,22.30
2018,08,21,11,48,22.20
2018,08,21,11,49,22.10
2018,08,21,11,50,22.10
2018,08,21,11,51,22.00
2018,08,21,11,52,21.90
2018,08,21,11,53,21.80
2018,08,21,11,54,21.80
2018,08,21,11,55,21.80
2018,08,21,11,56,21.80
2018,08,21,11,57,21.90
2018,08,21,11,58,22.00
2018,08,21,11,59,22.10
2018,08,21,12,00,22.10
2018,08,21,12,01,22.10
2018,08,21,12,02,22.20
2018,08,21,12,03,22.20
2018,08,21,12,04,22.30
2018,08,21,12,05,22.30
2018,08,21,12,06,22.40
2018,08,21,12,07,22.50
2018,08,21,12,08,22.50
2018,08,21,12,09,22.60
2018,08,21,12,10,22.70
2018,08,21,12,11,22.80
2018,08,21,12,12,22.80
2018,08,21,12,13,22.90
2018,08,21,12,14,22.90
2018,08,21,12,15,23.00
2018,08,21,12,16,23.10
2018,08,21,12,17,23.10
2018,08,21,12,18,23.20
2018,08,21,12,19,23.20
2018,08,21,12,20,23.20
2018,08,21,12,21,23.20
2018,08,21,12,22,23.30
2018,08,21,12,23,23.30
2018,08,21,12,24,23.30
2018,08,21,12,25,23.30
2018,08,21,12,26,23.30
2018,08,21,12,27,23.20
2018,08,21,12,28,23.20
2018,08,21,12,29,23.30
2018,08,21,12,30,23.30
2018,08,21,12,31,23.20
2018,08,21,12,32,23.20
2018,08,21,12,33,23.20
2018,08,21,12,34,23.20
2018,08,21,12,35,23.20
2018,08,21,12,36,23.30
2018,08,21,12,37,23.30
2018,08,21,12,38,23.30
2018,08,21,12,39,23.30
2018,08,21,12,40,23.40
2018,08,21,12,41,23.40
2018,08,21,12,42,23.40
2018,08,21,12,43,23.40
2018,08,21,12,44,23.40
2018,08,21,12,45,23.40
2018,08,21,12,46,23.50
2018,08,21,12,47,23.50
2018,08,21,12,48,23.60
2018,08,21,12,49,23.70
2018,08,21,12,50,23.70
2018,08,21,12,51,23.80
2018,08,21,12,52,23.90
2018,08,21,12,53,23.90
2018,08,21,12,54,24.00
2018,08,21,12,55,24.10
2018,08,21,12,56,24.20
2018,08,21,12,57,24.30
2018,08,21,12,58,24.40
2018,08,21,12,59,24.40
2018,08,21,13,00,24.40
2018,08,21,13,01,24.40
2018,08,21,13,02,24.40
2018,08,21,13,03,24.40
2018,08,21,13,04,24.40
2018,08,21,13,05,24.40
2018,08,21,13,06,24.40
2018,08,21,13,07,24.40
2018,08,21,13,08,24.50
2018,08,21,13,09,24.50
2018,08,21,13,10,24.60
2018,08,21,13,11,24.60
2018,08,21,13,12,24.60
2018,08,21,13,13,24.60
2018,08,21,13,14,24.60
2018,08,21,13,15,24.60
2018,08,21,13,16,24.50
2018,08,21,13,17,24.60
2018,08,21,13,18,24.60
2018,08,21,13,19,24.60
2018,08,21,13,20,24.70
2018,08,21,13,21,24.80
2018,08,21,13,22,24.80
2018,08,21,13,23,24.90
2018,08,21,13,24,24.80
2018,08,21,13,25,24.80
2018,08,21,13,26,24.80
2018,08,21,13,27,24.80
2018,08,21,13,28,24.80
2018,08,21,13,29,24.80
2018,08,21,13,30,24.80
2018,08,21,13,31,24.80
2018,08,21,13,32,24.80
2018,08,21,13,33,24.90
2018,08,21,13,34,24.90
2018,08,21,13,35,24.90
2018,08,21,13,36,24.90
2018,08,21,13,37,25.00
2018,08,21,13,38,25.10
2018,08,21,13,39,25.10
2018,08,21,13,40,25.10
2018,08,21,13,41,25.20
2018,08,21,13,42,25.20
2018,08,21,13,43,25.20
2018,08,21,13,44,25.30
2018,08,21,13,45,25.40
2018,08,21,13,46,25.40
2018,08,21,13,47,25.50
2018,08,21,13,48,25.50
2018,08,21,13,49,25.50
2018,08,21,13,50,25.60
2018,08,21,13,51,25.60
2018,08,21,13,52,25.70
2018,08,21,13,53,25.70
2018,08,21,13,54,25.80
2018,08,21,13,55,25.90
2018,08,21,13,56,25.90
2018,08,21,13,57,25.90
2018,08,21,13,58,26.00
2018,08,21,13,59,26.10
2018,08,21,14,00,26.10
2018,08,21,14,01,26.10
2018,08,21,14,02,26.10
2018,08,21,14,03,26.10
2018,08,21,14,04,26.10
2018,08,21,14,05,26.10
2018,08,21,14,06,26.10
2018,08,21,14,07,26.10
2018,08,21,14,08,26.10
2018,08,21,14,09,26.10
2018,08,21,14,10,26.10
2018,08,21,14,11,26.10
2018,08,21,14,12,26.10
2018,08,21,14,13,26.10
2018,08,21,14,14,26.10
2018,08,21,14,15,26.10
2018,08,21,14,16,26.10
2018,08,21,14,17,26.10
2018,08,21,14,18,26.10
2018,08,21,14,19,26.10
2018,08,21,14,20,26.20
2018,08,21,14,21,26.20
2018,08,21,14,22,26.20
2018,08,21,14,23,26.30
2018,08,21,14,24,26.30
2018,08,21,14,25,26.40
2018,08,21,14,26,26.40
2018,08,21,14,27,26.40
2018,08,21,14,28,26.40
2018,08,21,14,29,26.40
2018,08,21,14,30,26.40
2018,08,21,14,31,26.40
2018,08,21,14,32,26.30
2018,08,21,14,33,26.30
2018,08,21,14,34,26.30
2018,08,21,14,35,26.30
2018,08,21,14,36,26.30
2018,08,21,14,37,26.20
2018,08,21,14,38,26.20
2018,08,21,14,39,26.20
2018,08,21,14,40,26.20
2018,08,21,14,41,26.20
2018,08,21,14,42,26.20
2018,08,21,14,43,26.20
2018,08,21,14,44,26.30
2018,08,21,14,45,26.30
2018,08,21,14,46,26.30
2018,08,21,14,47,26.40
2018,08,21,14,48,26.40
2018,08,21,14,49,26.40
2018,08,21,14,50,26.40
2018,08,21,14,51,26.50
2018,08,21,14,52,26.60
2018,08,21,14,53,26.60
2018,08,21,14,54,26.60
2018,08,21,14,55,26.60
2018,08,21,14,56,26.60
2018,08,21,14,57,26.60
2018,08,21,14,58,26.50
2018,08,21,14,59,26.50
2018,08,21,15,00,26.50
2018,08,21,15,01,26.50
2018,08,21,15,02,26.50
2018,08,21,15,03,26.50
2018,08,21,15,04,26.50
2018,08,21,15,05,26.60
2018,08,21,15,06,26.60
2018,08,21,15,07,26.50
2018,08,21,15,08,26.50
2018,08,21,15,09,26.50
2018,08,21,15,10,26.50
2018,08,21,15,11,26.50
2018,08,21,15,12,26.50
2018,08,21,15,13,26.50
2018,08,21,15,14,26.50
2018,08,21,15,15,26.50
2018,08,21,15,16,26.40
2018,08,21,15,17,26.40
2018,08,21,15,18,26.40
2018,08,21,15,19,26.40
2018,08,21,15,20,26.40
2018,08,21,15,21,26.40
2018,08,21,15,22,26.40
2018,08,21,15,23,26.40
2018,08,21,15,24,26.50
2018,08,21,15,25,26.50
2018,08,21,15,26,26.60
2018,08,21,15,27,26.60
2018,08,21,15,28,26.70
2018,08,21,15,29,26.70
2018,08,21,15,30,26.70
2018,08,21,15,31,26.70
2018,08,21,15,32,26.60
2018,08,21,15,33,26.60
2018,08,21,15,34,26.60
2018,08,21,15,35,26.60
2018,08,21,15,36,26.50
2018,08,21,15,37,26.50
2018,08,21,15,38,26.50
2018,08,21,15,39,26.50
2018,08,21,15,40,26.50
2018,08,21,15,41,26.50
2018,08,21,15,42,26.50
2018,08,21,15,43,26.50
2018,08,21,15,44,26.50
2018,08,21,15,45,26.50
2018,08,21,15,46,26.50
2018,08,21,15,47,26.60
2018,08,21,15,48,26.60
2018,08,21,15,49,26.60
2018,08,21,15,50,26.60
2018,08,21,15,51,26.60
2018,08,21,15,52,26.60
2018,08,21,15,53,26.70
2018,08,21,15,54,26.70
2018,08,21,15,55,26.70
2018,08,21,15,56,26.80
2018,08,21,15,57,26.80
2018,08,21,15,58,26.80
2018,08,21,15,59,26.80
2018,08,21,16,00,26.80
2018,08,21,16,01,26.80
2018,08,21,16,02,26.80
2018,08,21,16,03,26.80
2018,08,21,16,04,26.80
2018,08,21,16,05,26.80
2018,08,21,16,06,26.80
2018,08,21,16,07,26.80
2018,08,21,16,08,26.80
2018,08,21,16,09,26.80
2018,08,21,16,10,26.80
2018,08,21,16,11,26.90
2018,08,21,16,12,26.90
2018,08,21,16,13,26.90
2018,08,21,16,14,26.90
2018,08,21,16,15,27.00
2018,08,21,16,16,27.00
2018,08,21,16,17,27.10
2018,08,21,16,18,27.10
2018,08,21,16,19,27.10
2018,08,21,16,20,27.10
2018,08,21,16,21,27.20
2018,08,21,16,22,27.20
2018,08,21,16,23,27.20
2018,08,21,16,24,27.20
2018,08,21,16,25,27.30
2018,08,21,16,26,27.30
2018,08,21,16,27,27.30
2018,08,21,16,28,27.30
2018,08,21,16,29,27.30
2018,08,21,16,30,27.30
2018,08,21,16,31,27.20
2018,08,21,16,32,27.20
2018,08,21,16,33,27.20
2018,08,21,16,34,27.10
2018,08,21,16,35,27.10
2018,08,21,16,36,27.10
2018,08,21,16,37,27.10
2018,08,21,16,38,27.10
2018,08,21,16,39,27.00
2018,08,21,16,40,27.00
2018,08,21,16,41,27.00
2018,08,21,16,42,27.00
2018,08,21,16,43,26.90
2018,08,21,16,44,26.90
2018,08,21,16,45,26.90
2018,08,21,16,46,26.90
2018,08,21,16,47,26.90
2018,08,21,16,48,27.00
2018,08,21,16,49,27.00
2018,08,21,16,50,27.00
2018,08,21,16,51,27.10
2018,08,21,16,52,27.10
2018,08,21,16,53,27.10
2018,08,21,16,54,27.10
2018,08,21,16,55,27.20
2018,08,21,16,56,27.20
2018,08,21,16,57,27.20
2018,08,21,16,58,27.20
2018,08,21,16,59,27.20
2018,08,21,17,00,27.20
2018,08,21,17,01,27.20
2018,08,21,17,02,27.30
2018,08,21,17,03,27.30
2018,08,21,17,04,27.30
2018,08,21,17,05,27.30
2018,08,21,17,06,27.30
2018,08,21,17,07,27.30
2018,08,21,17,08,27.30
2018,08,21,17,09,27.30
2018,08,21,17,10,27.30
2018,08,21,17,11,27.30
2018,08,21,17,12,27.20
2018,08,21,17,13,27.20
2018,08,21,17,14,27.20
2018,08,21,17,15,27.10
2018,08,21,17,16,27.10
2018,08,21,17,17,27.10
2018,08,21,17,18,27.10
2018,08,21,17,19,27.00